This is the latest recevied weather packets stored in our database for station/object KF7U. If no packets are shown the sender has not sent any weather packets the latest 10 day(s).
| Time | Temp. | Humidity | Pressure | Rain* | Wind** | Luminosity | Snow |
|---|---|---|---|---|---|---|---|
| 1778013755 | 23.89° C | 38% | 1009.5 hPa | 0 mm | - | 425 W/m² | - |
| 1778013455 | 23.89° C | 39% | 1009.5 hPa | 0 mm | - | 1173 W/m² | - |
| 1778013155 | 24.44° C | 38% | 1009.5 hPa | 0 mm | - | 339 W/m² | - |
| 1778012855 | 25° C | 36% | 1009.5 hPa | 0 mm | - | 416 W/m² | - |
| 1778012555 | 25° C | 37% | 1009.5 hPa | 0 mm | - | 1128 W/m² | - |
| 1778012255 | 25° C | 37% | 1009.5 hPa | 0 mm | - | 1196 W/m² | - |
| 1778011957 | 25° C | 37% | 1009.5 hPa | 0 mm | - | 436 W/m² | - |
| 1778011655 | 25° C | 39% | 1009.8 hPa | 0 mm | - | 1159 W/m² | - |
| 1778011355 | 24.44° C | 39% | 1009.8 hPa | 0 mm | - | 1218 W/m² | - |
| 1778011059 | 24.44° C | 39% | 1009.8 hPa | 0 mm | - | 1115 W/m² | - |
| 1778010755 | 23.89° C | 41% | 1009.8 hPa | 0 mm | - | 1169 W/m² | - |
| 1778010454 | 22.78° C | 44% | 1009.8 hPa | 0 mm | - | 1176 W/m² | - |
| 1778010155 | 22.78° C | 42% | 1009.8 hPa | 0 mm | - | 378 W/m² | - |
| 1778009855 | 22.78° C | 42% | 1009.8 hPa | 0 mm | - | 324 W/m² | - |
| 1778009555 | 23.33° C | 43% | 1009.8 hPa | 0 mm | - | 544 W/m² | - |
| 1778009255 | 23.89° C | 41% | 1010.2 hPa | 0 mm | - | 331 W/m² | - |
| 1778008955 | 23.89° C | 40% | 1010.2 hPa | 0 mm | - | 1108 W/m² | - |
| 1778008656 | 23.33° C | 45% | 1010.2 hPa | 0 mm | - | 1106 W/m² | - |
| 1778008354 | 22.22° C | 44% | 1010.2 hPa | 0 mm | - | 420 W/m² | - |
| 1778008055 | 22.78° C | 46% | 1010.5 hPa | 0 mm | - | 392 W/m² | - |
| 1778007756 | 22.22° C | 47% | 1010.5 hPa | 0 mm | - | 642 W/m² | - |
| 1778007455 | 21.67° C | 49% | 1010.5 hPa | 0 mm | - | 411 W/m² | - |
| 1778007154 | 22.22° C | 48% | 1010.5 hPa | 0 mm | - | 256 W/m² | - |
| 1778006855 | 22.78° C | 48% | 1010.5 hPa | 0 mm | - | 354 W/m² | - |
| 1778006554 | 22.78° C | 48% | 1010.5 hPa | 0 mm | - | 367 W/m² | - |
* Rain latest hour (hover to see other rain measurements)
** Current wind speed in m/s (hover to see current wind gust speed)